Regional Weather Roundup
Issued by NWS Upton, NY

Current Version | Previous Version | Graphics & Text | Print | Product List | Glossary Off
Versions: 1 2 3 4 5 6 7 8 9 10 11 12 13 14 15 16 17 18 19 20 21 22 23 24 25 26 27 28 29 30 31 32 33 34 35 36 37 38 39 40 41 42 43 44 45 46 47 48 49 50

000
ASUS41 KOKX 310005
RWROKX

REGIONAL WEATHER ROUNDUP
NATIONAL WEATHER SERVICE NEW YORK NY
700 PM EST FRI JAN 30 2015

NOTE: "FAIR" INDICATES FEW OR NO CLOUDS BELOW 12,000 FEET WITH NO
SIGNIFICANT WEATHER AND/OR OBSTRUCTIONS TO VISIBILITY.

NYZ071-072-176-178-NJZ106-104-310100-
NEW YORK CITY METRO AREA


CITY           SKY/WX    TMP DP  RH WIND       PRES   REMARKS
CENTRAL PARK   CLEAR     28   9  44 NW15G35   29.97R WCI  16
LAGUARDIA APRT PTCLDY    28  13  53 NW30G40   29.94R WCI  12
KENNEDY INTL   PTCLDY    29  12  49 NW31G44   29.94R WCI  13
NEWARK/LIBERTY PTCLDY    27  11  51 NW25G37   29.98R WCI  12
BRNX BOT. GARD   N/A    N/A N/A N/A NW13      29.96R
TETERBORO      CLEAR     26  10  50 NW15G30   29.97R WCI  14
$$

NYZ177-179-078>081-310100-
LONG ISLAND NEW YORK

CITY           SKY/WX    TMP DP  RH WIND       PRES   REMARKS
FARMINGDALE    MOCLDY    30  17  58 NW14G24   29.90R WCI  19
ISLIP          MOCLDY    31  16  54 NW16G31   29.85R WCI  20
SHIRLEY        PTCLDY    30  17  58 N15       29.86R WCI  19
WESTHAMPTON    CLOUDY    31  16  54 NW20G28   29.85R WCI  19
MONTAUK POINT    N/A     32  21  64 NW16G29   29.80S WCI  21
$$

NYZ052-065-067-310100-
HUDSON VALLEY

CITY           SKY/WX    TMP DP  RH WIND       PRES   REMARKS
WHITE PLAINS   CLEAR     26  13  57 NW25G32   29.90R WCI  11
NEWBURGH       PTCLDY    23  12  63 NW23G35   29.95R WCI   7
MONTGOMERY     MOCLDY    22   8  55 NW17G29   29.97R WCI   8
POUGHKEEPSIE   CLEAR     26   8  46 NW14G25   29.96R WCI  14
ALBANY         PTCLDY    17   5  59 W22G31    30.01R WCI   0
$$

NJZ001-105-106-008-010-013-015-019>022-104-310100-
NEW JERSEY

CITY           SKY/WX    TMP DP  RH WIND       PRES   REMARKS
NEWARK/LIBERTY PTCLDY    27  11  51 NW25G37   29.98R WCI  12
TETERBORO      CLEAR     26  10  50 NW15G30   29.97R WCI  14
CALDWELL       CLEAR     24   9  52 NW20G33   29.99R WCI  10
MORRISTOWN     CLEAR     25  10  54 N14G23    29.99R WCI  13
SOMERVILLE     CLEAR     26   8  46 N22G38    30.01R WCI  12
SUSSEX         CLEAR     20   6  55 NW20G28   30.00R WCI   4
ANDOVER          N/A     20   7  57 N10G22    30.01R WCI   9
TRENTON        CLEAR     28  10  46 NW18G33   30.00R WCI  15
MILLVILLE      CLEAR     31  15  52 NW17G31   30.03R WCI  19
ATLANTIC CITY  MOCLDY    31  20  63 NW25G31   29.99R WCI  17
WRIGHTSTOWN    PTCLDY    30  14  51 N17G25    29.97R WCI  18
TOMS RIVER     PTCLDY    30  14  51 NW12G22   29.97R WCI  21
BELMAR         CLEAR     28  10  47 NW23      29.96R WCI  14
$$

PAZ047>061-062-071-310100-
EASTERN PENNSYLVANIA

CITY           SKY/WX    TMP DP  RH WIND       PRES   REMARKS
PHILADELPHIA   MOCLDY    32  16  51 NW25G33   30.05R WCI  19
ALLENTOWN      CLOUDY    24  11  57 NW22G29   30.07R WCI   9
SCRANTON       LGT SNOW  16   7  67 N13       30.09R WCI   2
$$

CTZ002-004>006-009-010-012-RIZ004-006-007-MAZ004-011-015-310100-
SOUTHERN NEW ENGLAND
 IN CT

CITY           SKY/WX    TMP DP  RH WIND       PRES   REMARKS
BRADLEY INTL   PTCLDY    25  13  60 NW18G29   29.86R WCI  11
HARTFORD       MOCLDY    27  14  58 NW9G24    29.88R WCI  18
DANBURY        PTCLDY    26  10  50 NW15G25   29.90R WCI  14
WTRBRY/OXFORD  CLEAR     23   7  50 N20G32    29.85R WCI   8
BRIDGEPORT     MIX PCPN  29  16  58 NW18G29   29.87R WCI  16
MERIDEN        CLOUDY    27  13  55 NW20G29   29.87R WCI  13
NEW HAVEN      PTCLDY    29  13  51 NW17G30   29.87R WCI  17
CHESTER        FAIR      28  16  59 NW18G30   29.82R WCI  16
GROTON         MIX PCPN  29  18  63 NW20G33   29.80R WCI  16
WILLIMANTIC    CLOUDY    29  18  63 W13G22    29.81R WCI  19

 IN RI

CITY           SKY/WX    TMP DP  RH WIND       PRES   REMARKS
PROVIDENCE     FLURRIES  32  25  75 NW16G25   29.74F WCI  21
BLOCK ISLAND   CLOUDY    32  19  59 NW16G29   29.75S WCI  21
WESTERLY       CLOUDY    31  20  63 NW14G25   29.78S WCI  21

 IN MA

CITY           SKY/WX    TMP DP  RH WIND       PRES   REMARKS
BOSTON         FLURRIES  31  24  75 NW16      29.73S WCI  20
WORCESTER      CLEAR     24  17  74 NW21G29   29.73R WCI   9
WESTFIELD      CLOUDY    25  14  63 NW16      29.85R WCI  12
PROVINCETOWN   CLOUDY    34  28  80 NW16G25   29.69S WCI  23
NANTUCKET      CLOUDY    34  29  82 NW14      29.67F WCI  25
$$

ANZ330-335-338-340-345-350-353-355-310100-
COASTAL MARINE OBSERVATIONS


STATION/POSITION TIME  SKY/WX   TEMP    WIND        PRES    VSBY  WAVE
                                AIR SEA DIR/SP/G                  HT/PER
                 (UTC)          (F)     (DEG/KT/KT) (MB)    (MI)  (FT/S)
NY HARB ENTRANCE 0000            33 40  300/ 31/ 37 1011.8          6/ 5
4S FIRE IS       0000               38                N/A           4/ 5
20S FIRE ISLAND  2300               41              1010.7          6/ 5
23SW MTP         0000                                 N/A           5/ 5
HUDSON CANYON    NOT AVBL
EXECUTION ROCKS  0000            30 33  290/ 21/ 31   N/A
WESTERN LI SOUND 0000            32     310/ 25/ 33   N/A           2/ 3
CENTRAL LI SOUND 2300            32 35  310/ 25/ 33   N/A           3/ 4
EASTERN LI SOUND NOT AVBL
ROBBINS REEF     2300            29     330/ 28/ 35 1012.9
$$


>>>>>>>>>>>>>>>>>>>>>>>>>>>> KEY <<<<<<<<<<<<<<<<<<<<<<<<<<<
>                                                          <
>     SKY/WX - SKY CONDITION/PRESENT WEATHER               <
>     TMP    - TEMPERATURE IN FAHRENHEIT                   <
>     DP     - DEWPOINT IN FAHRENHEIT                      <
>     RH     - RELATIVE HUMIDITY IN PERCENT                <
>     WIND   - DIRECTION AND SPEED IN MPH                  <
>     PRES   - MEAN SEA LEVEL PRESSURE IN INCHES OF HG     <
>     WCI    - WIND CHILL INDEX                            <
>     VSB    - VISIBILITY IN MILES                         <
>     HX     - HEAT INDEX                                  <
>     TC     - TEMPERATURE IN CELSIUS                      <
>     VRB    - VARIABLE WIND DIRECTION                     <
>                                                          <
>>>>>>>>>>>>>>>>>>>>>>>>>>>> KEY <<<<<<<<<<<<<<<<<<<<<<<<<<<





USA.gov is the U.S. government's official web portal to all federal, state and local government web resources and services.